User: anonymous   Login
Location: Caltech
(34.1382°N, 118.1253°W)
Time: 12:06:51
(UTC-08:00)
Language:

ATLAS 5 CENTAUR R/B - Orbit

View from above orbital plane
View from above orbital plane
View from above satellite
View from above satellite

Ground track
Ground track

The orbit data is extracted from the following two-line orbital elements,

1 30778U 07006G   14354.32393992  .02385887  86065-2  15823-2 0  2357
2 30778 035.6713 332.8789 0008003 184.0063 176.0281 16.17981768434106
Epoch (UTC): 20 December 2014 07:46:28
Eccentricity: 0.0008003
inclination: 35.6713°
perigee height: 220 km
apogee height: 230 km
right ascension of ascending node: 332.8789°
argument of perigee: 184.0063°
revolutions per day: 16.17981768
mean anomaly at epoch: 176.0281°
orbit number at epoch: 43410

The dashed part of the orbit path shows where the satellite is in the earth's shadow,  

DLR